Wind_Speed
31 31 30 27 25 24 22 21 21 21 22 22 22 21 20 19 19 19 18 17 16 16 15 16 16 17 17 18 18 17 17 17 16 16 17 18 19 20 21 22 22 22 21 21 21 21 21 21 21 21 20 20 20 20 21 22 21 21 21 22 22 23 22 21 21 20 20 19 19 19 19 20 22 22 21 20 20 19 19 19 20 21 21 20 19
35 34 31 28 27 24 23 22 22 22 22 22 22 21 20 20 20 19 19 17 16 15 15 15 16 16 17 17 17 17 17 17 16 16 17 18 18 19 21 22 21 21 20 20 20 20 20 20 19 19 19 19 19 19 20 21 21 20 20 20 20 21 21 21 21 21 20 20 20 20 20 20 21 21 20 18 18 18 18 18 19 20 20 19 19
38 36 32 29 27 25 24 23 23 23 22 22 22 22 21 20 20 20 19 18 17 16 14 14 15 16 16 16 16 17 17 16 16 15 16 17 18 19 20 21 21 20 19 19 19 19 18 18 18 17 17 17 17 17 18 19 20 20 19 19 18 18 18 18 18 19 19 19 19 20 20 20 20 19 18 17 16 16 16 18 18 19 18 18 17
39 37 33 30 27 26 24 23 24 23 23 23 23 22 21 20 20 20 20 19 17 16 14 14 14 15 16 16 16 17 16 16 16 15 15 18 19 19 20 21 20 19 19 18 18 18 17 17 16 16 15 15 15 15 16 17 19 18 18 18 17 16 16 15 14 13 14 16 17 18 19 19 18 18 17 16 15 15 16 17 18 18 17 17 17
39 37 34 31 28 26 24 25 24 24 24 23 23 23 22 21 20 20 20 19 17 16 15 14 14 15 16 16 16 17 17 15 15 15 15 18 19 19 20 20 20 18 18 17 17 17 17 16 16 15 15 14 13 13 14 15 17 17 16 16 16 15 14 12 9 8 8 11 14 15 15 16 15 16 16 16 15 15 16 16 16 16 16 16 16
40 37 35 32 29 27 25 25 24 24 24 24 24 23 23 21 20 20 19 19 17 16 15 15 15 16 17 17 17 17 17 16 14 14 15 17 19 19 19 20 19 18 17 17 17 16 16 15 15 15 15 14 13 12 12 13 15 16 16 15 14 14 12 9 7 8 7 6 10 12 11 13 13 13 14 15 15 14 15 15 15 15 16 16 16
40 38 35 33 30 27 25 25 25 24 24 23 23 23 23 22 21 20 20 19 18 17 15 16 16 17 17 17 18 17 17 16 14 14 15 16 18 19 18 19 19 18 16 16 16 15 15 14 13 14 14 13 12 11 10 11 13 15 15 15 14 14 11 9 10 11 10 8 10 11 10 12 12 13 13 14 15 14 14 15 15 15 15 15 16
39 38 35 33 30 28 26 25 25 24 23 21 22 22 22 22 21 20 20 19 18 17 16 17 17 17 18 17 18 18 17 15 15 15 15 15 18 18 17 18 18 17 15 15 15 14 14 13 12 12 13 13 12 11 10 10 11 13 13 14 13 12 11 11 12 12 13 14 15 12 10 13 13 14 13 13 13 13 14 15 15 15 15 15 15
38 36 35 34 30 29 26 25 25 25 22 20 21 21 22 22 21 20 19 18 18 18 17 18 17 17 17 17 17 18 17 15 15 16 16 15 16 17 17 17 17 16 15 14 13 13 13 12 12 11 12 12 11 11 10 9 10 11 12 12 12 12 11 11 11 12 13 16 16 11 11 13 13 14 13 12 12 12 14 15 15 15 15 15 15
35 35 35 34 31 29 26 26 25 25 23 21 21 20 21 21 20 20 19 18 17 17 18 18 17 17 17 17 17 18 17 15 15 16 16 15 15 17 17 16 16 16 15 14 13 12 12 11 11 10 10 10 10 9 9 9 9 10 11 12 11 11 11 11 12 14 15 17 17 12 11 13 14 14 13 13 13 13 14 14 15 14 14 14 15
33 35 35 34 32 29 27 26 25 25 23 22 21 20 20 19 19 18 18 18 17 16 17 18 16 16 16 17 17 18 18 16 16 15 16 15 15 16 16 15 14 15 15 14 12 11 11 10 10 9 9 9 9 8 8 8 10 10 10 11 11 10 11 11 11 13 14 16 16 12 12 14 14 14 13 13 13 13 14 14 14 14 14 14 14
31 34 35 35 32 29 28 26 26 25 23 22 22 20 19 19 18 18 18 18 19 18 17 17 16 16 16 16 17 18 18 17 17 16 15 15 15 16 15 14 14 13 14 14 13 12 10 10 9 8 8 8 8 8 8 9 10 10 9 10 10 9 11 11 10 11 12 15 14 11 13 14 14 13 13 13 13 13 13 14 13 14 13 13 12
31 33 35 35 32 30 28 26 26 25 23 22 21 20 19 19 18 18 18 18 20 20 18 17 17 16 15 16 17 18 18 18 18 17 15 16 16 16 16 14 13 12 12 14 13 11 10 9 8 7 7 7 7 7 8 9 9 9 9 9 8 9 10 10 9 10 13 14 12 11 13 14 13 12 12 12 12 12 12 13 13 13 12 11 11
33 33 35 36 33 30 28 27 26 25 23 21 21 20 20 20 18 18 18 18 20 21 21 18 18 18 16 16 17 18 18 19 19 17 15 16 16 15 16 14 13 11 12 13 13 11 9 8 7 7 7 7 6 7 8 9 9 8 8 7 6 8 9 9 9 11 12 12 12 11 13 14 13 12 12 12 11 11 11 12 12 13 11 10 11
33 34 36 36 33 30 28 27 26 25 24 22 22 20 20 20 18 18 18 19 21 23 22 20 20 19 17 15 16 18 18 19 19 18 16 15 15 14 14 15 13 12 12 12 13 12 9 8 7 6 6 6 6 7 8 8 8 7 6 6 6 7 7 7 9 12 12 11 11 10 13 14 13 12 12 11 10 10 10 11 12 11 10 10 11
30 33 36 35 33 30 29 27 26 25 24 23 21 20 20 20 18 18 17 20 22 24 23 22 21 19 17 16 16 19 19 19 20 18 16 15 15 13 13 14 13 11 11 13 14 12 10 8 7 6 5 5 6 6 7 8 7 6 5 6 6 7 7 8 9 11 11 11 10 10 13 13 12 11 11 10 10 9 9 10 10 9 10 10 10
28 32 35 34 32 30 29 27 26 25 25 23 20 20 20 20 18 17 17 19 23 24 25 24 23 20 18 17 17 20 20 20 20 19 16 14 14 14 13 13 12 11 10 13 14 12 10 8 7 6 5 5 5 6 7 7 7 5 4 5 6 7 9 10 11 11 12 10 9 11 13 13 11 10 10 9 9 9 9 9 8 9 11 10 10
28 31 33 32 31 29 28 27 26 25 25 23 20 19 20 19 18 17 17 20 24 25 25 25 24 22 20 18 18 19 19 20 20 19 17 14 13 12 12 11 11 10 10 13 14 12 10 8 7 5 5 5 5 5 7 7 6 4 3 5 7 7 8 11 12 11 10 9 8 11 13 12 11 10 9 8 9 9 9 8 6 9 11 10 10
27 29 29 30 29 28 27 26 26 26 25 23 20 20 19 18 18 17 18 21 24 23 24 24 24 23 21 19 18 18 19 19 20 18 16 14 13 11 10 9 9 10 11 14 14 12 10 8 7 5 5 5 4 5 6 7 6 4 2 4 6 6 8 11 11 9 8 7 9 11 12 11 10 9 9 7 7 7 7 6 6 9 9 9 9
25 26 27 26 27 26 26 26 26 26 26 23 20 20 18 18 18 18 19 21 23 23 23 23 23 23 22 20 18 18 19 19 18 17 15 14 12 10 9 8 8 9 11 15 14 12 10 9 7 6 5 5 4 5 6 7 6 4 2 2 4 5 8 9 9 7 6 8 11 12 11 10 9 8 8 6 5 6 5 5 6 8 8 8 9
23 24 24 24 25 24 25 26 26 26 25 23 20 19 18 18 18 18 19 21 22 22 22 21 20 20 21 20 19 19 20 19 18 17 15 14 12 9 8 7 7 8 12 15 13 12 10 9 8 7 6 5 5 4 5 7 6 4 2 2 4 4 8 9 8 6 7 10 12 12 11 9 9 8 6 5 5 5 5 6 7 7 7 8 8
24 24 23 24 25 24 24 25 26 26 26 24 22 20 19 19 19 19 19 21 21 21 21 21 20 20 20 21 21 21 21 20 18 17 16 14 11 9 8 7 7 8 11 14 13 12 10 9 8 7 7 6 5 5 5 6 6 5 4 3 3 4 7 9 8 6 8 11 11 11 10 9 8 7 6 6 5 4 5 6 7 6 6 7 9
22 23 24 25 25 25 25 25 26 26 26 25 24 22 19 19 19 18 19 20 21 20 21 21 21 21 21 21 21 21 21 20 18 17 15 14 11 10 8 7 7 7 10 12 12 11 11 10 9 8 7 6 6 6 6 6 7 6 5 5 1 3 7 9 7 7 9 11 11 10 10 9 8 6 6 5 3 4 5 6 5 5 6 8 9
20 21 24 26 25 25 26 25 26 27 27 26 25 24 22 20 19 19 19 20 20 20 21 22 22 22 22 21 21 20 19 18 18 16 15 14 12 11 10 8 8 7 9 11 12 12 11 11 10 9 8 7 7 7 7 6 8 8 7 6 2 5 9 9 7 8 10 11 11 10 9 9 7 6 5 3 2 4 5 5 4 5 7 9 10
14 18 21 22 23 25 26 25 24 27 27 26 26 25 24 23 21 20 20 20 20 19 20 20 22 23 23 22 21 19 17 16 17 16 15 15 13 12 12 11 9 8 9 10 12 12 12 11 10 9 8 8 8 8 8 7 10 9 8 7 4 8 11 10 9 9 10 10 10 9 8 8 7 6 4 1 2 4 4 4 4 6 8 9 9
11 16 20 20 22 24 26 25 23 26 26 25 26 26 26 25 23 22 21 21 20 19 19 20 20 22 23 23 21 20 18 16 16 16 15 15 14 14 13 12 11 10 10 11 12 13 13 12 11 10 9 9 9 10 10 10 12 9 8 9 6 9 11 11 10 9 9 10 9 9 8 8 7 5 2 1 2 3 3 4 5 7 8 8 8
19 18 22 21 22 24 26 27 24 25 26 25 26 27 27 26 25 24 23 23 21 20 19 21 20 19 22 25 23 22 22 19 17 17 17 16 15 15 13 11 10 10 10 11 13 14 14 13 11 10 9 9 9 11 12 13 14 10 8 10 8 9 11 12 11 10 10 10 10 9 9 8 7 4 1 1 2 3 3 4 6 8 8 8 7
24 21 23 21 22 24 26 28 26 26 26 26 26 28 29 27 27 26 24 24 23 22 21 22 24 20 18 22 24 23 23 21 19 19 19 18 15 15 14 11 10 10 9 10 13 15 14 12 12 10 9 8 10 11 13 15 16 13 10 11 11 10 12 12 11 11 11 10 10 9 8 7 5 3 1 1 2 3 4 5 7 8 8 7 7
21 21 24 20 20 24 25 28 29 28 27 27 27 28 29 27 27 27 25 24 24 24 22 23 26 24 18 19 22 22 23 22 20 19 20 18 16 16 15 11 9 9 9 9 11 14 13 11 11 11 9 8 10 12 14 18 19 15 12 13 12 11 14 14 12 11 11 9 8 7 6 5 4 4 2 2 3 5 6 7 7 7 7 7 7
19 21 26 22 20 23 25 28 30 30 29 29 28 29 30 28 28 28 26 25 24 24 24 24 26 26 21 19 21 20 21 21 19 20 20 18 17 17 16 13 10 10 11 10 10 13 13 10 10 11 10 8 12 15 16 21 21 17 15 13 11 13 14 14 12 11 10 9 7 6 5 5 5 4 3 4 5 6 8 8 8 8 7 7 7
22 23 27 24 23 23 24 28 31 30 30 30 30 30 31 29 28 29 27 25 24 24 24 25 26 27 24 21 20 19 19 18 17 21 20 18 18 18 17 14 12 12 12 12 11 13 13 11 10 11 11 13 14 13 14 21 23 20 16 12 12 14 15 14 13 11 9 9 8 7 6 6 5 5 5 5 5 7 8 8 8 8 8 7 7
26 27 27 25 28 26 23 28 33 31 30 31 30 30 30 30 29 30 29 26 25 25 25 25 26 27 26 22 21 20 19 18 17 19 19 18 20 19 19 17 14 14 14 14 12 13 14 12 11 11 13 13 10 11 18 20 20 18 15 13 14 15 16 17 14 10 9 9 9 8 7 6 5 5 6 6 6 7 8 8 8 9 8 8 7
29 28 29 28 30 30 24 27 34 33 32 31 30 31 31 29 30 31 30 27 25 26 26 26 27 28 28 25 23 22 19 19 18 18 17 17 20 19 18 16 14 16 14 13 13 13 14 14 14 14 12 11 9 13 17 17 16 16 15 14 14 15 16 17 14 12 10 9 9 8 7 6 5 5 6 6 5 6 8 9 9 9 8 7 7
33 29 31 30 29 31 26 28 34 36 34 33 29 29 31 28 30 32 30 29 26 25 25 25 27 29 28 25 24 23 20 20 19 18 16 16 18 17 17 15 12 15 14 12 14 15 14 14 13 12 9 10 11 14 15 15 15 15 15 15 14 15 15 16 15 14 12 11 11 8 7 6 5 6 6 5 5 5 8 10 9 9 8 7 5
37 33 33 32 29 30 29 29 35 38 35 35 29 26 30 27 28 32 29 30 27 26 24 22 26 29 27 25 24 23 21 22 20 17 17 16 17 17 18 17 13 14 14 12 14 15 15 13 11 10 10 12 12 14 14 14 15 15 15 14 15 16 15 15 15 16 15 14 14 10 7 7 6 6 5 4 5 6 8 10 10 9 8 7 6
37 36 36 35 32 33 32 33 36 39 36 36 30 25 28 28 28 30 28 30 27 27 25 20 24 27 26 24 23 22 22 24 22 18 19 18 18 18 17 18 15 15 15 15 15 15 16 15 11 10 11 12 13 14 13 15 15 15 15 13 15 16 15 16 15 15 16 15 16 13 10 9 8 6 6 5 5 7 8 10 11 9 7 7 7
38 39 40 38 35 35 36 38 39 40 37 36 32 26 27 29 29 27 26 29 27 28 28 22 22 25 24 23 22 21 22 25 23 18 20 20 18 19 17 17 17 16 17 17 17 16 17 17 13 12 12 11 12 12 13 14 15 15 16 15 16 17 15 15 14 13 15 16 17 16 13 11 9 7 7 6 5 6 7 9 10 9 7 7 7
40 42 41 38 37 37 37 39 41 40 38 36 33 28 26 27 28 26 25 29 28 27 29 24 22 23 22 22 21 21 21 25 25 19 21 22 19 19 17 17 18 18 19 19 18 17 18 18 16 14 14 13 12 11 12 14 15 16 17 18 19 18 15 12 13 12 12 16 19 17 15 14 13 10 8 7 7 6 6 8 9 9 8 8 8
40 40 40 39 39 40 37 37 39 40 39 37 34 30 26 26 28 26 24 28 28 26 28 27 23 23 23 22 22 23 21 25 26 21 22 23 20 19 18 18 19 20 21 19 19 21 20 18 17 16 14 12 11 11 13 14 15 16 17 18 19 18 15 10 11 13 12 15 18 17 15 15 15 13 10 8 9 8 6 6 7 8 9 9 9
40 38 39 41 42 41 37 36 40 41 39 37 35 32 29 26 27 26 25 28 29 26 27 28 25 24 24 23 23 24 22 25 27 22 23 25 21 19 20 20 21 21 22 21 21 22 21 19 17 17 14 12 11 12 14 16 16 16 15 16 15 14 13 11 11 11 12 16 16 15 13 13 13 12 11 10 11 11 9 7 7 8 9 9 9
36 36 38 42 43 42 39 39 41 41 41 40 38 36 32 29 28 28 28 30 31 28 27 28 26 25 24 24 25 24 22 25 28 24 24 27 23 20 21 22 23 22 22 23 23 21 20 18 16 16 15 14 15 14 15 18 18 14 11 11 11 12 11 12 12 10 11 15 16 14 12 12 11 11 13 14 14 13 11 9 7 8 10 10 9
35 36 39 43 45 43 42 42 42 43 43 43 42 40 37 34 31 29 28 31 32 31 29 27 26 27 25 24 26 26 22 25 29 26 26 28 26 22 22 23 24 24 22 22 23 21 19 18 17 17 16 15 17 18 19 19 17 15 13 8 6 9 11 12 14 12 11 14 16 15 15 14 13 13 15 15 15 14 13 12 9 9 11 12 10
37 39 39 42 44 44 42 42 44 45 44 43 42 41 39 35 32 29 27 29 32 31 29 26 25 27 27 25 27 27 24 26 29 28 27 28 28 25 23 22 24 24 23 22 21 20 19 19 19 19 17 16 17 20 22 20 17 17 13 6 3 5 6 10 15 16 13 14 17 17 15 16 15 15 16 16 15 15 14 13 11 11 12 13 12
34 36 36 36 37 41 42 43 45 45 43 43 42 40 38 35 32 28 24 26 30 29 28 26 25 27 28 27 29 29 26 27 30 29 28 28 27 26 24 23 24 25 24 24 23 22 22 21 20 20 19 19 18 21 23 21 20 19 10 3 3 3 2 8 14 20 18 14 16 18 16 17 17 17 18 18 17 17 15 14 13 13 14 14 14
34 36 38 37 36 39 43 44 45 44 43 43 42 39 36 33 31 27 21 23 28 28 29 29 26 27 31 29 30 31 28 28 31 31 30 29 27 27 26 24 24 25 24 24 24 24 24 23 21 21 22 22 22 22 24 22 22 23 16 7 4 2 3 6 8 15 21 18 17 19 19 19 18 18 20 20 20 19 17 16 16 15 15 14 14
37 40 42 43 41 41 42 42 42 43 43 43 41 39 37 35 33 30 26 26 28 29 31 32 29 29 33 31 30 32 31 30 31 32 31 30 28 27 27 25 24 25 25 24 25 25 25 24 22 22 22 24 24 23 25 25 23 24 21 12 8 4 3 7 5 4 15 20 18 19 21 21 19 19 22 22 22 21 19 18 19 19 17 15 15
37 40 41 43 43 43 42 42 41 42 42 41 41 40 38 36 36 34 31 29 28 30 32 32 28 29 33 32 30 32 33 32 32 32 32 31 30 28 27 26 25 26 26 25 26 26 26 25 23 23 22 24 26 25 26 27 25 24 23 18 12 7 4 7 7 2 5 12 17 19 21 22 20 19 22 25 23 20 19 19 20 22 21 18 17
40 40 40 41 43 44 44 44 42 41 41 42 43 42 40 39 38 35 32 30 30 29 31 32 28 27 33 34 31 32 34 33 32 32 33 31 30 29 28 28 26 26 27 27 27 27 26 26 24 24 24 25 27 27 27 28 27 25 25 23 19 14 10 9 11 9 5 3 10 14 18 21 23 22 21 24 24 20 18 21 22 24 24 22 19
40 40 41 41 42 43 43 43 42 41 41 42 44 43 42 40 38 35 32 31 30 28 29 32 29 27 33 35 33 32 33 34 33 32 33 32 31 30 29 29 28 27 28 28 28 27 26 27 27 26 27 27 27 27 27 30 31 28 25 26 24 20 16 13 13 12 8 5 5 6 12 16 20 24 24 22 24 21 18 22 25 25 25 24 21
38 40 40 40 41 41 41 42 41 40 41 42 44 43 42 39 37 37 35 33 32 28 27 31 30 28 32 35 34 33 33 34 34 33 33 33 33 32 30 30 31 29 28 29 29 28 27 28 28 28 29 28 28 28 26 28 32 32 28 26 25 20 16 14 14 13 11 9 6 6 12 14 14 22 27 25 25 23 21 23 26 26 25 23 20
37 39 38 39 40 40 40 41 40 40 41 42 44 43 41 40 40 40 37 34 34 32 29 30 31 30 33 35 36 35 34 34 35 34 34 34 34 34 32 31 32 31 29 29 29 29 28 28 28 29 30 29 28 28 26 26 29 32 30 28 26 24 19 16 16 17 12 9 6 5 13 18 17 22 27 28 28 25 22 23 27 28 24 21 19
Wind_Direction
161 162 159 162 160 157 156 154 151 149 146 146 144 142 141 141 140 138 136 133 130 126 124 122 121 121 119 117 114 113 111 109 109 111 108 109 115 118 123 124 118 115 113 111 110 108 104 100 96 93 91 89 87 87 87 86 85 85 85 84 83 82 83 84 84 85 85 86 86 84 82 86 85 86 88 85 81 80 79 78 79 78 75 74 73
163 160 159 163 161 159 157 156 153 152 149 148 145 143 142 144 145 142 141 138 136 133 128 126 126 125 123 120 116 115 113 110 110 113 113 112 117 121 124 125 121 118 115 113 112 109 105 101 97 93 90 88 85 84 85 85 84 86 87 85 84 83 84 84 83 80 80 83 86 86 84 85 83 80 81 82 81 80 79 78 78 78 76 74 73
159 158 160 162 162 160 159 157 154 154 152 148 145 145 144 145 148 146 145 143 142 140 135 130 130 130 129 125 119 118 115 112 111 115 117 117 120 124 126 126 124 120 117 115 114 110 106 101 97 94 90 87 84 82 82 84 85 87 88 86 83 82 82 81 81 78 73 72 75 82 83 80 79 78 78 80 80 81 79 75 75 76 76 74 72
156 157 158 161 162 161 160 158 155 155 154 150 146 146 146 147 149 150 148 148 147 147 143 136 134 133 132 128 123 122 119 114 112 114 117 120 124 126 127 128 126 122 119 118 115 110 105 101 97 93 90 86 82 81 80 82 85 87 89 86 83 80 78 77 78 78 73 70 66 70 77 78 77 78 78 78 77 76 74 72 73 73 73 72 70
156 156 158 160 162 162 162 160 157 155 154 152 148 148 149 150 150 151 152 152 151 150 149 143 139 136 132 128 126 127 124 119 116 113 115 122 126 128 128 129 128 126 122 119 116 111 106 101 98 93 88 84 82 80 79 79 82 87 89 86 81 77 72 71 69 68 68 72 72 67 72 79 79 79 78 77 77 74 71 72 73 71 72 72 70
156 155 158 159 162 164 164 160 158 155 154 152 150 150 152 152 152 153 154 153 151 152 152 146 143 138 133 129 130 133 129 124 122 117 116 122 127 129 129 130 131 130 125 121 117 112 107 103 98 93 87 82 80 79 80 80 81 86 90 88 81 73 65 58 58 57 52 58 86 87 79 83 83 80 78 79 81 76 75 76 74 70 70 71 70
156 155 158 159 162 163 164 161 158 155 154 152 150 151 152 154 155 155 154 153 152 153 153 148 146 142 136 132 133 137 135 131 129 122 119 123 129 131 130 132 134 133 128 123 120 114 110 105 98 92 87 80 76 76 80 82 83 86 89 88 82 74 59 50 60 62 66 79 109 110 91 91 89 80 78 79 78 73 76 78 74 71 70 69 69
154 155 159 159 161 162 164 160 157 155 152 149 149 150 151 154 155 155 155 154 154 155 154 151 149 145 139 135 136 141 140 136 135 127 121 124 131 133 131 134 137 137 133 127 124 120 115 108 100 93 87 80 73 70 76 84 85 86 87 85 78 69 56 53 64 68 80 103 119 114 94 97 94 85 83 79 77 71 74 76 73 71 69 68 68
152 155 159 159 160 162 164 160 158 155 151 148 148 150 151 153 154 155 156 155 155 155 153 152 150 147 143 141 140 144 144 140 140 131 125 128 133 136 135 137 141 142 140 135 130 124 118 110 103 94 88 80 72 66 70 84 87 86 86 83 73 63 63 58 61 73 89 111 118 106 93 98 95 89 85 82 81 75 74 75 74 71 69 67 67
151 155 159 160 160 164 165 161 159 157 154 150 150 151 152 152 153 155 155 154 156 156 154 152 150 150 148 146 145 146 146 143 142 136 131 132 135 139 139 141 146 148 148 143 135 127 121 112 103 95 89 82 75 67 68 85 90 87 85 81 72 63 65 59 68 86 96 110 113 105 97 98 95 92 88 85 84 81 78 76 75 72 69 67 66
152 156 161 160 160 165 166 163 160 158 156 152 153 153 153 153 153 154 154 155 156 156 156 154 152 154 153 150 149 148 148 147 145 139 135 136 137 141 142 144 147 152 154 150 144 135 125 115 106 96 90 82 75 70 72 88 93 88 86 83 75 63 59 60 80 95 98 108 111 107 100 97 95 93 92 89 86 84 83 80 77 71 67 66 65
154 158 161 160 161 165 166 164 161 159 158 155 155 155 155 155 156 158 158 160 159 158 158 158 156 156 157 154 152 149 149 151 148 141 139 140 141 144 145 149 150 153 158 157 153 142 132 121 112 103 93 84 77 75 80 91 96 91 90 90 78 63 56 59 83 97 101 109 108 105 100 97 96 93 91 88 87 87 85 82 75 69 66 63 60
156 159 160 161 161 165 166 165 161 159 158 156 156 156 156 159 160 162 165 164 162 162 159 161 159 158 162 158 154 152 151 151 149 144 142 144 146 149 150 152 153 157 163 163 158 146 138 127 116 107 96 86 81 82 90 96 99 95 95 95 77 58 56 59 80 97 104 110 107 104 101 98 98 94 92 88 87 87 84 82 73 67 63 54 51
157 159 160 161 161 164 166 165 163 159 159 159 158 157 158 161 163 165 168 167 166 165 161 163 161 160 164 159 154 153 152 152 150 146 144 146 152 155 155 154 152 164 172 166 161 152 143 131 117 107 95 86 85 90 99 103 102 97 95 93 71 51 53 63 81 103 112 112 108 106 100 98 98 95 93 90 88 86 85 82 72 66 56 44 46
157 159 159 159 159 162 165 165 163 160 161 162 160 159 160 161 164 166 168 170 170 167 163 161 158 160 166 162 158 156 154 153 149 147 148 153 160 160 160 160 158 170 176 167 163 157 148 136 122 109 97 87 88 97 104 109 108 98 90 86 68 46 49 76 96 109 111 104 103 105 101 99 99 97 95 94 90 85 82 78 72 61 44 38 44
156 157 157 157 158 161 164 164 163 162 163 163 162 160 160 162 164 165 165 169 169 166 163 158 156 161 166 163 161 159 155 153 150 150 154 158 164 165 165 168 170 174 172 166 165 160 151 140 129 115 102 92 94 106 110 114 114 102 93 85 70 55 63 91 106 107 102 96 98 103 104 103 103 100 97 96 90 85 76 72 71 50 34 36 40
155 156 155 156 157 160 162 163 163 163 162 162 163 162 163 163 163 163 161 165 165 164 163 159 159 161 165 164 159 158 157 154 153 156 160 159 164 169 171 176 183 182 172 167 166 162 155 145 136 124 109 100 100 112 118 119 118 109 96 85 76 68 79 97 104 102 104 105 99 101 106 106 106 102 97 95 87 80 70 68 64 35 28 29 33
153 155 155 155 156 160 161 161 162 162 162 162 165 165 164 162 162 162 160 163 164 164 165 163 162 164 168 168 162 158 158 156 157 162 165 163 165 170 172 179 190 192 177 169 168 163 160 150 141 132 118 109 109 121 126 126 128 120 90 75 68 70 93 107 109 110 115 118 108 107 110 109 109 106 100 95 88 82 71 69 54 27 23 22 30
150 154 154 155 156 159 160 161 162 164 165 163 166 166 163 163 163 161 160 164 165 165 166 166 167 169 170 170 170 164 160 161 163 167 169 167 167 169 170 176 189 198 184 171 169 166 164 157 150 142 128 121 121 131 135 135 141 135 94 71 58 70 109 114 116 123 127 127 123 117 113 114 115 110 106 97 92 92 81 70 38 20 18 22 35
145 151 152 155 157 160 161 162 163 166 168 167 167 166 165 165 163 161 160 162 165 163 163 168 171 174 173 171 172 168 163 166 170 171 171 172 174 176 175 174 185 199 186 172 171 170 168 164 157 152 141 134 134 142 145 144 152 155 136 91 57 81 125 122 123 132 128 126 125 120 116 119 118 113 112 101 94 93 79 54 22 12 17 31 48
142 150 153 157 158 163 164 163 165 167 169 169 168 168 169 168 164 163 162 163 166 166 165 167 168 171 172 171 172 171 169 171 174 173 173 177 180 183 183 179 183 194 185 173 174 174 173 171 165 161 153 144 144 151 155 154 162 171 180 138 74 104 133 127 132 135 126 129 125 121 121 122 118 114 112 103 95 84 57 32 15 11 26 46 59
142 149 155 161 161 165 167 166 168 169 171 170 170 170 173 173 168 165 165 166 169 170 167 163 163 165 167 170 172 173 175 176 176 176 177 179 182 185 185 182 181 189 185 177 178 180 179 177 171 169 164 156 153 157 162 162 169 181 198 183 99 111 138 133 137 138 130 131 124 123 125 123 120 116 114 110 97 66 36 18 13 20 44 62 67
145 152 161 165 165 167 170 172 172 172 173 172 171 172 176 177 174 171 169 168 171 173 170 166 164 165 169 171 171 173 178 181 180 181 182 181 184 187 187 186 184 186 189 187 185 185 187 184 180 178 173 165 161 164 164 164 175 187 199 197 167 124 146 141 138 137 133 131 126 127 129 127 126 124 125 121 93 40 24 12 19 43 64 71 71
153 158 164 168 169 171 172 175 175 174 175 173 172 173 177 180 179 178 176 173 172 173 174 174 171 169 173 172 168 169 175 180 181 183 184 181 184 188 189 190 188 189 193 197 195 194 195 191 188 186 183 176 175 173 163 160 176 193 201 196 186 148 146 142 141 140 137 133 130 131 131 129 128 134 140 129 61 26 20 22 42 64 72 74 74
156 162 167 171 172 174 174 176 179 179 176 175 174 176 180 182 183 185 185 182 177 176 177 180 179 176 176 173 165 164 168 174 178 181 184 183 183 187 192 193 194 198 201 202 202 203 202 199 197 195 193 187 186 183 180 181 180 193 203 195 184 160 150 148 154 150 145 140 134 134 133 130 133 145 155 111 39 22 25 47 72 77 81 84 82
154 169 176 179 179 179 178 177 182 183 179 179 179 179 182 184 186 188 190 190 184 179 179 180 181 179 179 175 166 165 173 179 179 180 184 187 189 191 196 200 205 211 214 211 206 207 208 206 204 201 202 204 200 189 195 208 198 196 198 195 195 174 163 162 166 158 152 147 140 140 136 135 143 156 159 54 33 30 51 76 92 93 93 95 91
161 177 183 186 185 184 182 180 184 185 182 185 185 183 185 188 188 190 194 194 190 184 182 180 181 182 180 179 173 169 176 185 190 187 187 191 196 199 202 209 212 214 218 218 211 209 210 210 211 209 207 216 217 201 202 217 214 207 198 199 199 182 177 177 177 170 163 156 147 144 142 146 152 157 132 65 50 58 86 100 104 105 105 103 97
161 171 178 186 190 189 187 182 185 188 186 187 190 188 186 190 191 190 195 197 193 189 187 183 186 189 182 181 179 174 176 184 195 195 191 194 200 203 206 210 209 205 208 209 207 208 208 208 212 208 204 217 227 219 214 220 220 216 206 198 195 188 182 182 180 173 169 162 152 149 151 160 171 171 155 89 86 104 112 111 109 110 112 111 108
163 164 170 179 188 193 193 186 187 188 189 190 192 193 187 190 194 191 196 199 195 193 191 188 191 196 193 184 179 174 177 184 195 196 192 196 202 203 206 209 202 196 200 195 197 206 203 199 207 207 208 224 234 235 228 222 219 213 198 186 187 188 179 177 178 174 174 169 161 159 165 179 190 186 175 132 126 129 123 120 119 119 120 116 116
170 166 173 176 180 192 197 193 192 187 191 194 193 195 188 190 197 193 197 200 196 195 194 193 194 199 199 187 178 174 176 185 195 193 188 194 199 202 207 211 201 193 201 193 189 201 195 191 206 210 215 238 250 251 236 219 209 195 184 179 180 184 180 181 182 183 180 173 170 170 174 190 194 186 173 152 141 136 132 133 133 132 131 122 121
174 172 177 177 177 191 203 200 195 188 191 196 196 197 190 192 198 194 197 200 197 196 197 197 196 201 200 188 183 181 180 188 194 190 190 195 198 205 210 211 204 196 202 200 194 198 195 199 212 221 231 243 249 237 204 191 185 177 178 179 175 177 181 185 187 188 179 170 174 177 178 187 194 188 177 166 152 143 141 142 141 139 138 132 130
178 176 177 175 177 190 210 207 198 193 193 196 198 198 192 194 198 195 197 200 198 196 199 200 199 202 200 189 186 188 188 193 194 193 199 201 201 209 212 214 212 204 208 211 205 200 204 212 221 238 243 235 226 187 170 169 169 169 174 174 170 174 179 182 184 182 174 173 179 181 179 180 189 194 187 177 161 148 147 148 148 147 146 143 137
180 179 177 176 179 188 209 213 202 197 196 195 198 200 196 196 199 197 197 199 199 196 200 205 203 203 199 190 188 190 194 197 195 200 208 203 201 208 209 209 207 203 208 209 200 198 211 217 220 236 232 209 189 168 166 164 164 168 170 170 171 174 178 181 181 175 175 187 190 185 177 173 177 184 183 178 170 156 153 156 157 156 154 153 146
179 180 179 180 183 187 205 216 203 198 198 196 198 201 198 198 199 198 197 198 198 196 200 204 200 197 195 192 191 193 199 201 200 206 210 200 200 207 205 200 193 193 196 189 189 200 213 208 211 223 199 176 174 168 167 163 164 168 170 173 175 174 177 182 179 173 184 203 205 195 182 178 169 169 172 174 181 170 162 164 164 164 162 161 159
178 184 182 179 186 190 203 216 203 197 199 197 198 200 199 200 196 195 196 196 196 196 199 199 195 195 195 197 200 201 205 205 204 209 206 197 200 205 203 202 194 190 192 188 195 209 212 198 202 210 172 155 162 164 168 166 166 171 173 175 177 176 178 183 180 178 191 211 214 205 194 191 178 173 181 189 195 184 172 170 169 172 171 170 171
180 189 182 174 186 194 203 214 202 195 198 197 198 198 200 200 193 193 195 194 194 195 198 200 198 199 199 202 205 208 210 205 204 208 203 198 202 202 201 201 195 192 194 195 202 210 207 198 205 211 178 157 158 162 168 170 168 172 176 180 182 181 180 184 188 190 198 213 215 210 207 199 188 192 197 192 196 189 180 177 180 186 186 181 179
184 189 180 173 184 194 204 210 199 194 197 196 198 199 198 198 194 194 194 195 194 194 199 200 197 199 201 203 205 207 208 203 202 207 203 200 202 202 202 197 192 194 195 195 202 204 200 201 207 211 197 179 171 170 174 174 173 175 177 182 185 185 185 189 195 197 204 214 215 212 212 201 196 207 205 198 196 194 191 189 197 207 203 193 190
185 187 180 174 181 190 200 203 195 193 194 194 199 200 195 194 195 196 195 196 197 198 202 202 200 202 206 208 206 206 207 202 201 205 204 200 201 202 201 194 192 195 193 195 205 203 197 201 205 205 205 200 190 186 186 180 176 177 178 182 185 186 189 197 202 203 210 214 212 212 211 204 203 205 207 211 202 201 209 204 213 221 212 202 197
186 187 181 174 176 185 192 194 192 193 191 192 198 200 196 193 194 195 196 198 201 203 203 204 206 209 211 211 207 208 210 203 198 204 204 197 199 203 197 192 193 194 191 192 204 205 199 199 205 205 205 204 201 200 195 184 179 180 179 180 183 186 189 192 200 203 200 194 196 203 204 202 203 198 201 218 215 217 232 229 230 227 217 211 204
187 186 180 173 173 180 186 189 191 191 189 190 195 197 197 195 195 196 196 197 201 203 202 204 209 209 209 210 209 211 211 202 197 204 205 195 196 200 194 193 194 193 189 190 200 206 204 205 210 210 203 196 191 193 192 183 175 174 175 177 179 185 191 194 196 193 186 183 185 192 195 196 201 202 208 222 228 231 234 235 243 234 216 208 209
189 188 179 173 175 180 184 187 189 190 189 188 191 195 196 195 196 197 196 196 198 200 199 203 210 209 207 209 211 211 207 200 198 205 204 195 194 194 191 193 195 195 193 194 202 208 208 209 212 209 201 191 180 179 187 179 165 159 161 170 179 185 192 200 202 195 191 192 193 197 200 199 203 216 223 223 226 233 233 228 241 236 211 200 203
186 188 181 177 178 181 184 185 186 190 191 190 190 193 196 196 196 197 197 196 196 199 199 203 211 210 208 211 211 209 206 200 199 204 203 196 195 194 193 195 197 200 199 198 205 210 208 207 208 205 200 197 186 178 182 178 164 160 159 153 170 193 200 206 205 203 201 204 207 210 212 209 207 214 223 225 221 227 233 225 230 233 217 209 208
183 185 184 180 178 179 183 184 185 189 192 191 190 192 195 198 198 199 198 196 197 201 201 205 211 209 209 212 209 208 207 200 198 202 202 199 198 196 198 200 199 201 199 196 202 207 206 205 207 208 199 192 187 181 184 185 172 160 154 150 170 192 219 226 218 214 210 210 215 217 215 215 214 208 213 224 223 225 230 227 231 235 228 225 221
181 182 183 182 181 179 181 183 187 190 191 191 192 193 194 196 199 201 203 200 199 200 202 208 213 209 208 208 207 208 207 200 197 200 202 201 201 200 201 203 200 201 200 195 197 202 203 204 206 208 198 185 183 184 189 191 180 168 153 121 149 149 234 233 224 221 217 216 220 221 218 214 212 207 209 221 227 229 231 230 238 242 239 236 228
181 182 182 183 185 184 183 185 187 189 190 191 192 191 191 194 196 200 203 199 196 198 202 209 215 210 206 205 205 206 206 201 198 199 201 202 204 202 201 203 202 201 201 199 198 201 204 207 207 207 202 194 188 187 190 192 188 184 176 149 145 169 236 205 208 222 222 222 223 221 217 211 211 212 213 220 225 228 231 234 238 240 239 233 224
182 184 184 184 186 187 186 185 186 188 190 191 190 189 189 191 193 195 196 192 192 198 202 207 212 209 204 203 204 205 204 201 199 200 202 204 205 204 202 203 204 202 202 202 201 202 207 211 209 207 207 204 198 191 191 193 193 194 192 190 185 184 192 171 156 226 224 225 228 221 215 212 213 216 218 221 222 223 227 231 233 232 229 221 217
184 185 186 186 186 186 187 186 186 188 189 189 189 188 189 191 194 197 197 193 193 200 204 208 211 208 203 202 204 203 202 201 200 201 204 206 207 206 205 204 205 204 203 203 203 204 208 211 211 210 209 207 203 197 194 195 197 202 207 210 202 202 214 180 169 160 203 224 230 225 219 216 215 218 221 222 221 223 224 224 226 226 222 218 218
185 184 185 187 187 186 187 187 188 188 189 190 189 189 191 192 195 199 200 199 198 200 203 207 211 208 201 200 203 202 201 201 201 202 204 207 208 208 207 204 204 206 204 204 205 205 207 209 210 210 208 208 206 202 199 197 200 205 209 213 216 226 231 201 190 184 150 199 225 225 224 219 216 219 223 224 222 224 226 224 222 219 218 220 223
184 184 185 187 188 187 187 187 188 189 190 190 190 192 193 193 194 197 202 203 200 198 200 204 209 206 199 199 201 201 201 201 202 203 205 207 209 211 209 205 204 206 206 206 206 205 207 207 207 207 206 208 208 205 203 201 203 205 206 211 221 229 229 222 212 196 177 179 204 221 220 212 215 221 224 224 222 224 227 226 223 218 218 222 226
184 185 186 187 187 187 187 187 188 189 190 191 191 193 194 195 195 197 201 203 199 196 197 201 206 204 198 198 201 201 200 201 203 204 206 208 209 212 212 207 204 206 207 206 205 204 207 209 207 206 206 207 208 208 211 210 208 208 207 209 215 219 218 222 221 207 192 188 192 209 207 198 205 220 223 222 220 221 225 227 223 220 220 223 227
185 185 185 187 187 187 186 187 189 190 191 192 192 193 194 196 197 198 201 200 196 193 194 199 204 203 199 199 201 202 202 203 204 206 208 209 210 212 214 210 206 205 206 206 205 204 206 209 208 206 206 208 210 212 216 217 213 211 211 212 214 214 211 211 216 215 208 196 191 198 206 204 205 216 222 223 221 220 222 224 222 221 222 224 226
Height
796 797 800 802 804 805 806 807 808 809 811 812 813 815 817 819 821 822 824 825 826 828 828 829 830 831 832 832 833 834 835 836 838 839 840 842 843 844 845 846 846 847 848 849 849 849 850 850 851 851 851 852 852 852 852 852 853 853 853 854 854 855 855 855 855 855 855 855 855 855 854 854 854 854 854 855 855 855 854 854 854 853 853 853 852
792 796 798 801 803 804 806 807 808 809 811 812 814 816 817 819 821 823 824 825 827 828 829 830 831 832 832 833 834 835 836 837 838 839 841 842 843 845 846 847 848 849 849 850 851 851 851 851 852 852 853 853 853 854 854 854 854 854 855 855 856 856 856 857 857 857 857 857 857 856 856 856 856 856 856 856 856 856 855 855 855 854 854 854 854
790 795 797 800 803 804 806 807 808 809 811 812 814 816 818 820 821 823 824 825 826 828 829 830 831 832 833 834 835 835 837 838 839 840 841 843 844 846 847 848 849 850 850 851 852 852 852 853 853 853 854 854 855 855 855 856 856 856 856 857 857 858 858 858 858 858 858 858 858 858 857 857 857 858 858 858 857 857 857 856 856 856 855 855 855
790 793 797 800 802 804 806 807 808 809 811 812 814 816 818 820 821 823 824 825 826 828 829 830 832 833 834 834 835 836 837 838 839 840 842 844 845 847 848 849 850 851 851 852 853 853 854 854 855 855 855 856 856 856 857 857 857 857 857 858 858 859 859 859 860 859 859 859 859 859 859 859 859 859 859 859 858 858 857 857 857 857 856 856 856
790 793 796 799 801 804 805 807 808 809 810 812 813 816 818 820 821 823 824 825 827 828 829 831 832 833 834 835 836 837 838 839 840 841 843 845 846 847 849 850 851 852 852 853 854 854 855 855 856 856 857 857 857 858 858 858 858 859 859 859 859 860 860 860 860 860 860 860 860 860 860 860 860 860 860 860 860 859 859 858 858 858 858 857 857
789 792 795 798 801 803 805 807 808 810 810 812 813 815 817 819 821 823 824 825 827 828 830 831 832 833 834 835 837 838 839 840 840 842 843 845 847 848 849 851 852 852 853 854 855 855 855 856 857 857 858 858 858 859 859 859 860 859 860 860 860 861 860 860 859 860 860 860 861 861 861 861 861 861 860 860 860 860 860 860 859 859 858 858 858
787 791 795 797 801 803 805 807 808 810 811 812 814 816 817 819 821 823 824 825 827 828 830 831 832 834 835 836 837 838 840 840 841 842 844 846 847 849 850 851 852 853 854 855 855 856 856 857 857 858 859 859 859 860 860 860 860 860 861 861 861 861 861 860 860 860 860 860 860 861 861 861 861 861 861 861 861 861 861 861 860 860 859 859 859
788 791 794 797 800 802 805 807 808 810 812 814 815 816 818 820 821 823 825 825 827 828 829 831 832 833 835 836 837 839 840 841 842 842 844 846 848 849 851 852 853 854 854 855 856 856 857 858 858 859 859 860 860 860 861 861 861 861 861 861 862 862 861 860 860 860 860 860 860 861 862 862 862 861 862 862 861 862 862 862 861 861 860 860 860
789 791 793 797 799 802 805 806 808 810 812 814 816 817 818 820 821 823 825 826 827 827 829 831 832 833 834 836 837 839 840 842 843 843 844 846 848 850 851 852 853 854 855 856 856 857 858 858 859 859 860 861 861 861 861 862 862 862 862 862 862 862 862 861 861 861 860 861 861 862 862 862 862 862 862 862 862 862 862 862 862 862 861 861 861
789 791 794 796 799 802 804 806 808 809 812 814 816 818 819 820 822 823 825 826 827 828 829 831 832 833 834 836 838 839 841 842 843 844 844 846 849 850 852 853 854 855 855 856 857 858 858 859 860 860 861 861 862 862 862 862 862 863 863 863 863 862 862 862 862 862 862 862 862 863 862 863 862 862 863 863 863 863 863 863 862 862 862 862 861
789 791 793 795 798 801 803 805 807 809 811 813 816 818 820 820 822 823 824 826 827 828 829 831 832 834 835 836 838 839 841 843 844 845 845 847 849 850 852 853 854 855 855 857 857 858 859 859 860 861 862 862 863 863 863 863 863 863 863 863 863 863 862 862 862 862 863 863 863 863 863 863 863 863 863 863 863 864 864 863 863 863 863 863 862
789 790 792 795 797 801 803 805 806 809 811 813 815 817 819 820 822 823 824 826 827 828 830 831 833 834 835 836 838 839 841 843 844 845 846 847 849 851 852 853 854 855 856 857 858 858 859 860 861 862 862 863 863 863 863 863 864 864 863 863 863 863 863 863 863 863 863 863 863 863 863 863 863 864 864 864 864 864 864 864 864 863 863 863 863
788 790 791 794 796 800 802 804 806 808 811 813 815 817 819 820 822 823 824 825 826 828 829 831 833 834 835 837 838 840 841 843 845 846 846 848 849 851 852 853 854 855 856 857 858 859 860 861 861 862 863 863 864 864 864 864 864 864 863 863 863 863 863 863 863 863 863 863 864 864 864 863 864 865 865 865 865 865 865 865 864 864 864 863 863
787 789 791 794 796 800 802 805 805 807 811 813 815 816 818 820 822 823 824 825 826 828 829 831 832 834 836 837 839 840 842 843 845 846 847 848 849 851 852 853 854 855 856 857 858 859 861 861 862 862 863 864 864 864 864 865 865 864 864 863 863 863 863 863 864 864 864 864 864 864 864 864 864 865 865 866 866 866 866 865 865 865 864 863 863
786 788 791 794 797 800 802 805 805 807 810 813 815 816 818 820 822 823 824 824 825 827 828 830 832 834 835 837 839 840 842 843 845 846 847 848 850 851 852 854 854 855 856 857 859 860 861 861 862 863 863 864 864 864 864 865 865 865 864 864 864 863 864 864 864 864 864 864 864 864 864 864 865 865 866 866 866 866 866 866 865 865 864 864 863
789 790 792 795 798 800 802 805 806 808 810 814 815 816 818 820 822 823 824 824 825 826 828 830 832 834 835 837 839 840 842 843 845 846 847 848 850 851 852 854 854 855 856 857 859 860 861 861 863 863 864 864 864 864 865 866 865 865 865 865 865 864 864 864 864 864 864 864 864 865 865 865 865 866 866 866 867 867 867 866 866 865 864 864 863
791 793 794 796 799 802 803 805 806 808 811 814 816 817 818 820 822 823 824 824 825 826 827 829 831 833 835 837 839 840 842 843 845 846 847 849 850 851 852 854 854 855 856 858 859 860 861 861 863 863 864 864 864 865 865 866 866 866 866 866 865 865 865 864 865 865 865 865 865 865 865 866 866 867 867 867 867 867 867 867 866 865 864 864 863
793 795 797 799 801 804 806 807 808 810 812 815 817 818 819 820 822 823 824 825 825 826 827 829 830 832 834 836 839 840 842 843 845 846 847 849 850 851 852 853 854 856 857 858 859 859 860 861 862 863 864 864 864 865 865 866 866 866 866 866 866 866 866 866 866 865 866 866 866 866 866 867 867 867 868 867 868 868 868 867 866 866 865 864 864
796 798 800 802 803 806 807 808 809 811 814 816 818 819 820 821 822 823 824 825 826 826 827 828 830 831 833 836 838 840 842 843 845 846 847 849 850 852 852 853 854 855 857 857 858 859 860 861 862 863 864 864 865 865 866 866 867 867 867 867 867 867 866 866 866 866 866 866 866 867 867 867 868 868 868 868 868 868 868 868 867 866 866 865 864
799 801 803 805 806 808 809 810 811 812 815 817 819 820 821 822 823 824 824 825 826 827 827 828 829 831 832 835 838 840 842 843 845 846 847 849 850 852 852 853 854 855 856 857 859 859 860 861 862 863 864 864 865 865 866 867 867 867 867 867 867 867 867 866 866 866 867 867 867 867 868 868 868 868 868 869 869 869 869 868 867 867 866 865 865
801 803 805 807 808 810 810 811 812 814 816 818 820 821 823 823 824 825 825 826 826 827 827 827 829 830 832 834 837 839 841 843 844 846 847 848 850 852 853 853 854 855 856 857 859 859 860 861 861 862 863 864 865 865 866 866 867 867 867 867 867 867 867 867 867 867 867 867 867 867 868 869 869 869 869 869 869 869 869 868 868 867 867 866 866
802 804 806 808 809 811 811 812 813 815 817 818 821 822 824 824 825 825 826 826 827 827 827 827 828 830 832 833 835 838 840 842 844 845 847 848 850 852 853 853 854 855 856 858 859 860 860 861 861 862 863 864 864 865 865 866 867 867 867 867 868 868 868 868 867 868 868 868 868 868 869 869 869 870 870 870 870 870 869 869 868 868 867 867 866
803 804 806 807 809 810 811 812 813 815 817 818 820 822 825 826 826 826 826 827 827 827 827 827 828 829 831 832 834 836 839 841 843 845 846 848 850 851 853 853 854 855 856 858 859 860 860 861 861 862 862 864 864 865 865 866 867 867 867 867 867 868 868 868 868 868 868 868 868 869 869 869 869 870 870 870 870 870 870 869 868 868 868 868 867
805 806 807 808 809 810 811 813 814 815 816 817 819 821 824 826 827 827 827 827 827 827 827 827 827 829 830 831 833 835 838 841 843 845 846 848 849 851 852 853 854 855 856 858 859 860 860 860 861 861 862 863 864 864 864 865 866 866 867 867 867 868 868 868 868 868 868 868 869 869 869 869 870 870 871 871 871 870 870 869 869 869 868 868 868
808 810 810 811 811 811 813 814 815 816 816 817 818 821 823 825 827 828 828 828 828 827 827 827 827 828 829 831 832 834 837 840 842 844 845 847 848 850 852 853 854 855 856 857 858 859 860 860 860 861 861 862 863 863 864 864 866 866 866 867 867 868 868 868 868 868 868 868 869 869 869 869 870 870 871 871 871 871 870 870 869 869 869 869 869
809 812 813 813 813 813 814 815 816 817 817 818 818 820 822 824 826 827 828 828 828 827 827 827 827 828 829 830 831 833 836 839 841 843 844 846 848 850 851 852 853 854 856 857 858 859 859 860 860 860 861 861 862 863 863 864 865 865 866 866 867 868 868 868 868 868 868 868 869 869 869 870 870 870 871 871 871 870 870 870 870 870 870 870 870
801 808 813 815 815 814 814 815 817 818 818 819 819 820 821 823 825 826 827 827 828 827 827 827 827 828 828 829 830 832 834 837 840 842 843 845 847 849 850 852 853 854 855 856 857 858 859 859 859 860 860 860 861 862 863 863 865 865 866 866 866 867 867 868 868 868 868 868 869 869 869 870 870 870 871 871 871 871 870 870 870 870 870 870 870
796 803 809 814 816 816 816 816 817 818 819 820 820 821 821 822 823 825 826 827 827 827 827 827 827 828 828 829 830 831 833 836 838 841 842 844 846 848 850 851 852 853 854 855 856 857 858 858 859 859 859 859 859 861 861 862 864 864 865 865 865 866 867 868 867 868 868 868 868 869 869 869 869 870 870 870 871 871 870 870 870 871 871 870 870
797 801 805 810 815 818 818 817 817 818 819 820 821 821 821 822 823 824 824 826 826 827 827 827 827 827 828 829 830 831 832 834 837 839 841 843 845 847 849 850 851 852 853 854 855 856 857 857 858 858 857 857 858 859 860 861 863 864 864 864 864 865 866 867 867 867 867 868 868 869 869 869 869 869 870 870 870 871 871 871 871 871 871 871 870
797 800 802 805 811 818 819 817 816 817 818 819 820 820 821 821 822 822 823 824 825 826 827 827 827 827 827 828 829 830 831 834 836 838 840 842 844 846 848 850 851 852 853 854 855 856 856 856 857 857 857 856 856 857 858 859 861 862 863 863 863 864 865 865 866 867 867 868 868 869 869 869 869 870 870 870 870 870 871 871 871 871 871 871 871
793 797 800 801 805 814 820 819 817 816 817 817 818 819 820 820 820 821 822 823 824 825 826 826 827 826 827 828 829 830 831 833 835 837 840 841 843 845 847 849 850 852 853 853 854 855 855 855 856 856 856 856 856 856 856 857 859 860 861 861 862 863 864 865 865 866 867 868 868 868 869 869 869 870 870 870 870 870 870 871 871 871 871 871 871
790 792 797 799 801 809 818 819 817 816 816 816 817 817 818 819 819 820 821 822 822 824 825 826 826 826 827 827 828 829 831 833 835 837 839 841 843 845 846 848 850 851 852 853 854 854 854 855 855 856 856 856 856 856 856 856 858 858 859 860 862 863 864 864 865 866 867 867 868 868 868 869 869 869 870 870 870 870 870 871 871 872 872 872 872
788 791 794 796 799 804 813 818 817 816 815 815 815 816 817 818 818 819 819 820 821 822 823 824 825 825 826 827 828 829 831 832 834 836 838 840 842 844 846 847 849 850 851 852 853 853 853 855 856 856 856 856 855 856 856 856 857 857 858 859 861 862 863 864 865 866 866 867 867 868 868 869 869 869 870 870 870 869 870 871 872 872 872 872 872
785 790 791 794 798 801 809 816 815 814 814 814 814 814 815 816 817 818 818 819 820 821 822 823 824 824 825 826 827 828 830 832 834 835 837 839 841 843 845 847 848 850 851 852 852 852 853 855 856 855 855 855 855 855 856 856 857 858 858 859 860 861 862 863 864 865 866 866 867 867 868 868 868 869 869 869 869 869 870 871 872 872 873 873 872
780 785 787 790 797 799 806 814 813 811 812 812 812 813 814 815 815 816 817 817 818 820 821 822 823 823 824 825 826 827 829 831 833 835 836 838 840 842 844 846 847 849 850 851 851 851 852 854 855 854 854 854 855 855 856 856 857 857 858 859 859 860 862 863 864 865 865 866 866 867 867 868 868 868 868 868 869 869 870 871 872 872 873 873 873
775 781 782 784 791 795 802 810 810 809 809 810 811 811 812 814 814 815 816 816 817 818 820 821 822 823 823 824 825 826 828 830 832 834 836 837 839 841 843 845 846 848 849 850 850 850 851 853 853 853 853 853 854 855 855 856 856 857 858 859 859 860 861 862 863 864 865 865 865 866 867 867 867 867 868 868 869 869 870 871 872 872 872 873 873
771 777 778 777 784 791 798 805 805 805 806 807 809 810 811 812 813 814 815 815 816 817 818 819 820 821 822 822 823 825 827 829 830 833 835 837 839 841 842 844 846 847 848 849 848 848 850 851 851 852 852 852 853 854 855 856 856 857 858 858 859 860 861 862 863 864 864 864 865 865 866 866 867 867 867 868 868 869 870 870 871 872 872 872 873
770 773 774 773 779 788 795 799 801 802 803 805 807 809 810 811 811 812 813 814 814 815 817 818 819 820 820 821 822 824 826 827 829 831 833 836 838 840 841 843 844 846 847 847 847 847 849 850 850 851 851 852 852 853 854 855 856 857 858 858 859 860 861 862 863 863 864 863 863 864 865 866 866 867 867 867 868 869 869 870 870 871 871 872 872
769 772 772 770 775 784 791 795 797 799 800 802 805 807 808 809 810 810 811 812 813 814 815 816 817 818 818 819 821 822 824 826 828 830 832 834 837 839 840 842 843 844 845 845 845 845 848 849 849 850 850 851 851 852 853 854 855 856 857 858 859 860 861 862 863 863 863 863 863 864 864 865 865 865 866 867 867 868 868 869 869 870 871 871 872
767 770 770 768 772 780 785 790 793 796 798 799 802 805 806 807 807 807 808 809 811 812 814 815 816 816 817 818 819 820 822 824 826 828 830 833 835 837 839 840 842 843 843 843 843 844 846 847 848 848 849 850 851 852 852 853 855 856 857 858 859 860 861 861 862 863 863 863 863 863 863 863 863 864 865 866 867 867 868 868 869 869 870 870 871
766 769 768 766 769 775 779 783 788 792 794 794 796 799 801 802 802 803 804 806 808 810 812 813 814 815 815 816 817 818 820 822 824 826 829 831 834 836 837 839 840 841 842 842 842 843 844 846 846 847 848 849 850 851 852 852 854 856 857 858 859 859 860 860 861 862 862 863 863 862 862 862 863 863 863 865 866 867 867 868 868 868 869 870 870
762 766 766 763 765 770 774 778 783 788 789 789 790 793 795 796 798 799 801 804 806 807 809 810 812 813 813 814 815 817 818 820 822 825 827 829 832 834 835 837 838 839 841 841 841 842 843 844 845 845 846 847 848 849 850 851 852 853 855 857 859 859 859 859 860 860 861 862 862 862 862 862 863 863 863 864 865 866 866 866 867 868 868 869 869
757 760 762 761 762 765 770 774 779 782 784 786 786 788 791 793 796 798 800 802 804 805 807 808 810 810 811 812 813 814 816 818 820 823 825 827 829 831 833 835 837 837 839 840 840 841 842 842 843 843 844 846 847 848 849 849 850 852 854 857 858 859 859 858 858 858 859 861 861 861 861 861 862 863 863 863 864 864 865 865 866 866 867 867 868
754 756 759 762 763 763 765 770 774 777 780 781 783 785 788 791 794 797 799 801 803 804 806 806 807 808 808 809 810 812 814 816 818 821 823 825 827 829 831 833 835 836 837 838 838 839 840 840 841 841 842 844 845 846 847 848 849 850 853 856 857 859 860 857 856 856 858 859 860 860 860 860 861 862 863 862 862 863 863 864 864 864 865 866 866
750 752 755 759 762 762 762 764 768 772 775 776 779 782 786 789 792 796 799 800 802 802 802 802 803 804 805 806 807 809 812 814 816 818 820 822 825 827 829 830 832 834 834 836 836 837 838 839 839 839 840 841 842 844 846 847 848 848 849 852 856 859 857 854 854 855 855 856 858 858 858 859 859 860 861 861 861 861 862 862 863 863 863 864 864
744 747 749 752 756 759 760 762 765 768 771 773 777 780 782 786 788 790 793 794 796 797 796 797 798 800 802 803 805 807 809 811 813 816 818 820 822 824 826 828 829 831 832 833 834 835 836 837 838 838 838 838 840 841 843 845 847 847 846 847 849 851 851 851 854 855 853 854 856 857 857 857 858 858 859 859 860 860 861 861 861 862 862 862 863
740 743 746 749 751 754 757 759 762 764 768 770 773 776 779 782 784 785 786 788 790 791 792 795 796 798 800 801 803 804 806 809 811 813 815 817 819 822 824 825 827 828 830 831 832 833 834 834 835 836 836 837 838 839 841 843 845 845 845 846 846 847 847 849 851 852 853 854 854 855 855 856 856 856 857 857 858 858 859 859 860 860 860 860 861
735 739 743 746 748 750 752 754 757 760 764 767 770 772 775 777 780 782 784 785 786 788 791 793 795 796 798 799 800 802 804 806 808 810 812 815 817 819 821 823 824 825 827 828 829 831 831 832 833 834 834 835 835 836 838 840 841 842 843 845 845 846 846 847 847 848 850 853 853 853 853 854 855 854 854 855 856 856 857 857 858 858 859 859 860
731 734 737 741 744 746 749 751 753 756 760 764 766 768 771 773 776 779 781 782 783 786 789 791 793 794 795 796 798 799 802 804 806 808 810 812 814 816 818 820 821 822 823 825 827 828 829 830 831 832 832 833 833 835 836 837 838 839 840 842 843 844 845 846 846 846 847 850 851 851 851 852 853 852 852 853 854 854 855 855 855 856 857 857 858
727 731 734 738 741 743 746 748 750 754 757 761 763 765 768 771 774 775 777 778 780 782 786 789 790 791 792 793 795 797 799 801 803 805 807 808 810 813 814 816 818 819 820 822 824 825 827 827 828 829 830 831 832 833 834 835 835 837 838 839 841 842 843 843 844 844 844 846 848 848 848 849 850 850 850 850 851 852 853 853 853 854 854 855 856
724 728 732 735 738 740 743 745 748 751 754 757 760 761 765 768 769 771 773 774 775 777 781 784 786 788 788 789 791 794 796 798 800 802 804 806 807 809 811 813 815 816 817 818 820 822 823 825 826 827 828 828 829 831 832 833 834 835 836 837 838 838 839 840 840 841 842 843 844 845 846 846 847 847 847 847 849 850 851 851 851 851 852 853 854